Weather History for Guthrie, OK

Change the Weather History Date:

Friday, September 7, 2012

  Actual Average Record
Temperature  
Mean Temperature 82 °F -  
Max Temperature 102 °F 91 °F 105 °F (1998)
Min Temperature 64 °F 68 °F 50 °F (1950)
Cooling Degree Days 17    
Growing Degree Days 32 (Base 50)    
Moisture  
Dew Point 62 °F    
Average Humidity 62    
Maximum Humidity 94    
Minimum Humidity 28    
Precipitation  
Precipitation 0.48 in - - ()
Sea Level Pressure  
Sea Level Pressure 29.89 in    
Wind  
Wind Speed 7 mph (NNE)    
Max Wind Speed 17 mph    
Max Gust Speed 36 mph    
Visibility 8 miles    
Events Rain , Thunderstorm    
Averages and records for this station are not official NWS values.
T = Trace of Precipitation, MM = Missing Value Source: NWS Daily Summary

Daily Weather History Graph

Daily Weather History Graph

Search for Another Location

Airport:

Trip Planner

Search our weather history database for the weather conditions in past years. The results will help you decide how hot, cold, wet, or windy it might be!

Date:

Astronomy

Sep. 07, 2012 Rise Set
Actual Time 7:06 AM CDT 7:47 PM CDT
Civil Twilight 6:40 AM CDT 8:13 PM CDT
Nautical Twilight 6:10 AM CDT 8:44 PM CDT
Astronomical Twilight 5:38 AM CDT 9:15 PM CDT
Moon 11:58 PM CDT (9/7) 1:45 PM CDT (9/7)
Length of Visible Light 13h 32m
Length of Day
12h 41m
Waning Gibbous, 58% of the Moon is Illuminated
Sep 7
Waning Gibbous
Sep 8
Last Quarter
Sep 15
New
Sep 22
First Quarter
Sep 29
Full

Hourly Weather History & Observations

Time (CDT) Temp. Heat Index Dew Point Humidity Pressure Visibility Wind Dir Wind Speed Gust Speed Precip Events Conditions
12:53 AM 82.0 °F 83.1 °F 63.0 °F 52% 29.82 in 10.0 mi SE 5.8 mph - N/A   Clear
1:53 AM 80.1 °F 81.7 °F 64.0 °F 58% 29.83 in 10.0 mi Calm Calm - N/A   Clear
2:53 AM 78.1 °F - 66.0 °F 66% 29.82 in 10.0 mi SSE 4.6 mph - N/A   Clear
3:53 AM 80.1 °F 81.7 °F 64.0 °F 58% 29.81 in 10.0 mi Calm Calm - N/A   Clear
4:53 AM 80.1 °F 81.9 °F 64.9 °F 60% 29.81 in 10.0 mi South 3.5 mph - N/A   Scattered Clouds
5:53 AM 77.0 °F - 64.9 °F 66% 29.81 in 10.0 mi ESE 4.6 mph - N/A   Partly Cloudy
6:53 AM 77.0 °F - 64.0 °F 64% 29.80 in 10.0 mi SE 6.9 mph - N/A   Clear
7:53 AM 78.1 °F - 64.9 °F 64% 29.80 in 10.0 mi SE 6.9 mph - N/A   Clear
8:53 AM 84.9 °F 86.6 °F 64.9 °F 51% 29.79 in 10.0 mi South 9.2 mph - N/A   Clear
9:53 AM 89.1 °F 91.0 °F 64.9 °F 45% 29.79 in 10.0 mi South 10.4 mph - N/A   Clear
10:53 AM 95.0 °F 97.0 °F 64.0 °F 36% 29.78 in 10.0 mi SSW 10.4 mph - N/A   Clear
11:53 AM 98.1 °F 99.1 °F 62.1 °F 30% 29.76 in 10.0 mi WSW 9.2 mph - N/A   Clear
12:53 PM 100.0 °F 101.2 °F 61.0 °F 28% 29.75 in 10.0 mi WSW 11.5 mph - N/A   Clear
1:53 PM 100.0 °F 101.8 °F 62.1 °F 29% 29.75 in 10.0 mi NW 6.9 mph - N/A   Clear
2:53 PM 93.9 °F 95.2 °F 63.0 °F 36% 29.77 in 10.0 mi NW 12.7 mph 24.2 mph N/A   Mostly Cloudy
3:00 PM 91.4 °F 92.1 °F 62.6 °F 38% 29.80 in 10.0 mi Variable 6.9 mph 23.0 mph N/A Thunderstorm Overcast
3:17 PM 93.2 °F 94.9 °F 64.4 °F 38% 29.79 in 10.0 mi Variable 5.8 mph - N/A   Scattered Clouds
3:53 PM 91.9 °F 91.5 °F 60.1 °F 34% 29.78 in 6.0 mi North 17.3 mph 33.4 mph N/A   Haze
4:53 PM 84.0 °F 83.0 °F 55.9 °F 38% 29.86 in 8.0 mi North 17.3 mph 33.4 mph N/A   Overcast
5:01 PM 84.2 °F 83.0 °F 55.4 °F 37% 29.90 in 8.0 mi NNE 13.8 mph 35.7 mph N/A   Overcast
5:53 PM 81.0 °F 80.4 °F 53.1 °F 38% 29.90 in 10.0 mi North 15.0 mph 29.9 mph N/A   Clear
6:49 PM 69.8 °F - 60.8 °F 73% 29.98 in 10.0 mi NNE 12.7 mph 20.7 mph 0.00 in Thunderstorm Mostly Cloudy
6:53 PM 69.1 °F - 60.1 °F 73% 29.96 in 10.0 mi North 11.5 mph 25.3 mph 0.00 in Rain , Thunderstorm Light Rain
7:03 PM 68.0 °F - 60.8 °F 78% 29.98 in 9.0 mi NNE 12.7 mph 19.6 mph 0.00 in Rain , Thunderstorm Light Rain
7:37 PM 64.4 °F - 60.8 °F 88% 30.01 in 1.5 mi NNE 10.4 mph 25.3 mph 0.16 in Rain , Thunderstorm Heavy Thunderstorms and Rain
7:41 PM 64.4 °F - 60.8 °F 88% 30.01 in 0.8 mi North 8.1 mph 19.6 mph 0.22 in Rain , Thunderstorm Heavy Thunderstorms and Rain
7:49 PM 64.4 °F - 62.6 °F 94% 30.02 in 2.0 mi North 8.1 mph - 0.23 in Rain , Thunderstorm Light Thunderstorms and Rain
7:53 PM 64.0 °F - 61.0 °F 90% 30.02 in 7.0 mi Variable 5.8 mph - 0.24 in Rain , Thunderstorm Light Thunderstorms and Rain
8:07 PM 64.4 °F - 62.6 °F 94% 30.03 in 1.8 mi Variable 6.9 mph 20.7 mph 0.09 in Rain , Thunderstorm Heavy Thunderstorms and Rain
8:16 PM 64.4 °F - 60.8 °F 88% 30.03 in 2.0 mi NNE 8.1 mph - 0.19 in Rain , Thunderstorm Heavy Thunderstorms and Rain
8:26 PM 64.4 °F - 60.8 °F 88% 30.02 in 5.0 mi NNE 11.5 mph 17.3 mph 0.22 in Rain , Thunderstorm Rain
8:49 PM 64.4 °F - 60.8 °F 88% 30.04 in 6.0 mi North 3.5 mph - 0.24 in Rain Light Rain
8:53 PM 64.9 °F - 61.0 °F 87% 30.02 in 8.0 mi North 3.5 mph - 0.24 in Rain Light Rain
9:53 PM 64.9 °F - 61.0 °F 87% 30.04 in 10.0 mi North 5.8 mph - 0.00 in   Clear
10:53 PM 64.9 °F - 60.1 °F 84% 30.06 in 10.0 mi North 5.8 mph - N/A   Clear
11:53 PM 64.9 °F - 55.0 °F 70% 30.06 in 10.0 mi NNE 8.1 mph 21.9 mph N/A   Clear